Home   Weather   Corner Brook   Past weeks

Flag for Canada Past Weather in Corner Brook, Newfoundland and Labrador, Canada — Yesterday and Last 2 Weeks

Now
21 °F

Passing clouds.


Feels Like: 12 °F
Forecast: 14 / 24 °F
Wind: 8 mph from West

Location: Deer Lake

Current Time: Jan 19, 2018 at 10:16:48 am

Latest Report: Jan 19, 2018 at 9:30 am


Visibility: 15 mi

Pressure: 29.68 "Hg

Humidity: 80%

Dew Point: 16 °F

Location of Corner BrookLocation

Past Weather in Corner Brook — Graph

°F

Corner Brook Temperature Yesterday

Maximum temperature yesterday: 28 °F (at 9:30 pm)
Minimum temperature yesterday: 19 °F (at 12:30 am)
Average temperature yesterday: 24 °F

High & Low Weather Summary for the Past Weeks

 TemperatureHumidityPressure
High55 °F (Jan 13, 3:38 pm)100% (Jan 5, 9:15 am)30.87 "Hg (Jan 5, 9:15 am)
Low5 °F (Jan 4, 9:30 am)56% (Jan 5, 10:30 pm)28.97 "Hg (Jan 5, 11:56 am)
Average24 °F83%29.85 "Hg
* Reported Jan 4 8:30 am — Jan 19 8:30 am, Corner Brook. Weather by CustomWeather, © 2018

Note: Actual official high and low records may vary slightly from our data, if they occured in-between our weather recording intervals... More about our weather records

Advertising

Corner Brook Weather History for the Previous 24 Hours

Scroll right to see more
 ConditionsComfort  
Time TempWeatherWind HumidityBarometerVisibility
8:30 am
Fri, Jan 19
18 °FLight snow. Scattered clouds.6 mph86%29.68 "Hg12 mi
12:30 am27 °FLight snow. Overcast.9 mph80%29.62 "Hg10 mi
11:30 pm
Thu, Jan 18
28 °FLight snow. Mostly cloudy.12 mph80%29.61 "Hg10 mi
10:30 pm28 °FLight snow. Overcast.12 mph86%29.59 "Hg10 mi
9:30 pm28 °FLight snow. Overcast.10 mph93%29.59 "Hg8 mi
8:30 pm27 °FSnow flurries. Mostly cloudy.No wind93%29.60 "Hg10 mi
7:30 pm27 °FSnow flurries. Mostly cloudy.6 mph93%29.60 "Hg8 mi
6:30 pm27 °FSnow flurries. Mostly cloudy.5 mph93%29.60 "Hg8 mi
5:30 pm27 °FSnow flurries. Overcast.7 mph93%29.61 "Hg10 mi
5:17 pm27 °FSnow flurries. Overcast.6 mph93%29.61 "Hg8 mi
4:30 pm27 °FMostly cloudy.5 mph93%29.60 "Hg8 mi
3:30 pm27 °FLow clouds.2 mph93%29.62 "Hg9 mi
2:30 pm27 °FMostly cloudy.6 mph93%29.62 "Hg8 mi
1:30 pm27 °FMostly cloudy.6 mph93%29.64 "Hg7 mi
12:45 pm27 °FLight snow. Mostly cloudy.8 mph86%29.66 "Hg6 mi
12:30 pm27 °FLight mixture of precip. Mostly cloudy.10 mph86%29.67 "Hg5 mi
11:57 am25 °FLight mixture of precip. Mostly cloudy.10 mph93%29.69 "Hg4 mi
11:30 am25 °FLight mixture of precip. Low clouds.8 mph93%29.72 "Hg4 mi
10:30 am25 °FLight snow. More clouds than sun.9 mph86%29.76 "Hg7 mi
Weather by CustomWeather, © 2018

See weather overview